User: anonymous   Login
Location: Unspecified
(0.0000°N, 0.0000°E)
Time: 20:41:08
(UTC+00:00)
Language:

TBA - TO BE ASSIGNED - Orbit

View from above orbital plane
View from above orbital plane
View from above satellite
View from above satellite

Ground track
Ground track

The orbit is defined by the following mean orbital elements,

1 68751U          26145.58335647 +.00000000 +00000-0 +19168-2 0 00006
2 68751  97.2853   9.2845 0001371 101.0311 348.0776 15.49135225    02
Epoch (UTC): 25 May 2026 14:00:01
Eccentricity: 0.0001371
inclination: 97.2853°
perigee height: 418 km
apogee height: 420 km
right ascension of ascending node: 9.2845°
argument of perigee: 101.0311°
revolutions per day: 15.49135225
mean anomaly at epoch: 348.0776°

The dashed part of the orbit path shows where the satellite is in the earth's shadow,  

DLR